2013 SG102

Initial reported observation by Cerro Tololo-DECam on 2013-09-30.
(Discoverer will be defined when the object is numbered. See this note on how discoverers are determined.)

Orbit

Orbit type: Distant object

Note: WebGL enabled browser required.

epoch2024-03-31.0
epoch JD2460400.5
perihelion date2047-11-07.05718
perihelion JD2469021.55719
argument of perihelion (°)190.76456
ascending node (°)200.62221
inclination (°)7.96326
eccentricity0.0139278
perihelion distance (AU)42.7536248
Tisserand w.r.t. Jupiter5.8
ΔV w.r.t. Earth (km/sec)12.7
semimajor axis (AU)43.3575011
mean anomaly (°)330.23758
mean daily motion (°/day)0.00345230
aphelion distance (AU)43.961
period (years)285
P-vector [x]0.85430539
P-vector [y]0.48658224
P-vector [z]0.18275673
Q-vector [x]-0.51747606
Q-vector [y]0.82923087
Q-vector [z]0.21117455
absolute magnitude6.99
phase slope0.15
uncertainty4
referenceE2024-FB1
observations used72
oppositions6
arc length (days)3278
first opposition used2013
last opposition used2022
residual rms (arc-secs)0.13
perturbers coarse indicatorM-v
perturbers precise indicator003Ek
first observation date used2013-09-05.0
last observation date used2022-08-27.0
computer nameMPCLINUX
JD of orbit computation2458604.100641
perihelion JD uncertainty (days)1.1612E+02
argument of perihelion uncertainty (°)4.1038E-01
ascending node uncertainty (°)2.9272E-04
inclination uncertainty (°)6.7870E-05
eccentricity uncertainty 3.0140E-05
perihelion distance uncertainty (AU)1.0670E-03
Minimum Orbit Intersection Distances (in AU)
for orbit epoch: 2460400.5, reference: E2024-FB1
Mercury42.4239
Venus42.0295
Earth41.7598
Mars41.3061
Jupiter37.7873
Saturn33.3359
Uranus22.7432
Neptune12.931

Observations

68 total observations over interval: 2013 09 05.13172 – 2022 08 27.454860
These data are available for download (format description).

Date (UT) J2000 RA J2000 Dec Magn Location Ref
2013 09 05.13172 23 07 20.929 -00 46 18.28 22.97 g W84 – Cerro Tololo-DECam MPS 1445626
2013 09 10.28438 23 06 58.555 -00 48 47.04 24.31 g W84 – Cerro Tololo-DECam MPS 1445626
2013 09 30.117049 23 05 35.25 -00 58 31.8 22.9 r W84 – Cerro Tololo-DECam MPS 994340
2013 09 30.11758 23 05 35.25 -00 58 31.8 23.2 r W84 – Cerro Tololo-DECam MPS 1123985
2013 09 30.11758 23 05 35.247 -00 58 31.80 23.25 r W84 – Cerro Tololo-DECam MPS 1445626
2013 09 30.11904 23 05 35.24 -00 58 31.9 22.9 i W84 – Cerro Tololo-DECam MPS 1123985
2013 09 30.11904 23 05 35.242 -00 58 31.89 22.87 i W84 – Cerro Tololo-DECam MPS 1445626
2013 10 11.10096 23 04 54.06 -01 03 44.0 22.4 z W84 – Cerro Tololo-DECam MPS 1123985
2013 10 11.10096 23 04 54.061 -01 03 44.03 22.51 z W84 – Cerro Tololo-DECam MPS 1445626
2013 10 12.08214 23 04 50.65 -01 04 10.8 22.9 i W84 – Cerro Tololo-DECam MPS 1123985
2013 10 12.08214 23 04 50.648 -01 04 10.82 22.90 i W84 – Cerro Tololo-DECam MPS 1445626
2013 10 12.082998 23 04 50.63 -01 04 10.6 22.5 z W84 – Cerro Tololo-DECam MPS 994340
2013 10 12.08353 23 04 50.646 -01 04 10.91 23.07 z W84 – Cerro Tololo-DECam MPS 1445626
2013 10 13.12418 23 04 47.08 -01 04 39.1 22.8 i W84 – Cerro Tololo-DECam MPS 1123985
2013 11 23.07182 23 03 24.83 -01 18 12.3 23.4 r W84 – Cerro Tololo-DECam MPS 1123985
2013 11 23.07182 23 03 24.826 -01 18 12.34 23.15 r W84 – Cerro Tololo-DECam MPS 1445626
2015 11 06.02411 23 13 44.12 -00 30 21.4 23.2 r W84 – Cerro Tololo-DECam MPS 1123985
2015 11 06.02411 23 13 44.125 -00 30 21.37 23.23 r W84 – Cerro Tololo-DECam MPS 1445626
2015 11 06.02549 23 13 44.14 -00 30 21.5 22.8 i W84 – Cerro Tololo-DECam MPS 1123985
2015 11 06.02549 23 13 44.137 -00 30 21.56 22.74 i W84 – Cerro Tololo-DECam MPS 1445626
2015 11 06.02686 23 13 44.14 -00 30 21.3 24.5 g W84 – Cerro Tololo-DECam MPS 1123985
2015 11 06.02686 23 13 44.135 -00 30 21.37 24.15 g W84 – Cerro Tololo-DECam MPS 1445626
2016 08 01.44255 23 24 40.54 +00 33 04.3 23.6 z T09 – Subaru Telescope, Maunakea MPS 2092939
2016 08 01.46799 23 24 40.44 +00 33 03.6 23.6 z T09 – Subaru Telescope, Maunakea MPS 2092939
2016 08 01.48420 23 24 40.39 +00 33 03.5 23.2 z T09 – Subaru Telescope, Maunakea MPS 2092939
2016 08 01.51671 23 24 40.29 +00 33 03.0 23.4 z T09 – Subaru Telescope, Maunakea MPS 2092939
2016 08 01.53842 23 24 40.23 +00 33 02.6 23.2 z T09 – Subaru Telescope, Maunakea MPS 2092939
2016 08 01.56281 23 24 40.16 +00 33 02.3 23.5 z T09 – Subaru Telescope, Maunakea MPS 2092939
2016 08 09.44578 23 24 14.40 +00 30 34.1 23.1 y T09 – Subaru Telescope, Maunakea MPS 2092939
2016 08 09.45746 23 24 14.37 +00 30 33.8 22.8 y T09 – Subaru Telescope, Maunakea MPS 2092939
2016 08 09.47657 23 24 14.29 +00 30 33.4 22.8 y T09 – Subaru Telescope, Maunakea MPS 2092939
2016 08 09.50404 23 24 14.21 +00 30 32.9 23.0 y T09 – Subaru Telescope, Maunakea MPS 2092939
2016 08 09.50679 23 24 14.18 +00 30 32.8 23.5 y T09 – Subaru Telescope, Maunakea MPS 2092939
2016 08 09.52629 23 24 14.12 +00 30 32.3 23.4 y T09 – Subaru Telescope, Maunakea MPS 2092939
2016 08 09.54843 23 24 14.04 +00 30 31.9 23.2 y T09 – Subaru Telescope, Maunakea MPS 2092939
2016 08 14.26928 23 23 57.12 +00 28 51.0 23.0 z W84 – Cerro Tololo-DECam MPS 1123985
2016 08 14.26928 23 23 57.122 +00 28 50.95 22.76 z W84 – Cerro Tololo-DECam MPS 1445626
2016 09 07.37087 23 22 18.90 +00 18 24.8 23.4 r T09 – Subaru Telescope, Maunakea MPS 2092939
2016 09 07.39898 23 22 18.76 +00 18 24.1 23.4 r T09 – Subaru Telescope, Maunakea MPS 2092939
2016 09 07.44284 23 22 18.58 +00 18 22.8 23.4 r T09 – Subaru Telescope, Maunakea MPS 2092939
2016 09 07.47602 23 22 18.43 +00 18 21.9 23.2 r T09 – Subaru Telescope, Maunakea MPS 2092939
2016 09 26.13353 23 20 58.32 +00 09 08.5 23.6 r W84 – Cerro Tololo-DECam MPS 1123985
2016 09 26.13353 23 20 58.322 +00 09 08.45 23.52 r W84 – Cerro Tololo-DECam MPS 1445626
2016 09 26.13489 23 20 58.31 +00 09 08.4 22.9 i W84 – Cerro Tololo-DECam MPS 1123985
2016 09 26.13489 23 20 58.309 +00 09 08.44 22.86 i W84 – Cerro Tololo-DECam MPS 1445626
2016 09 26.13627 23 20 58.303 +00 09 08.53 24.70 g W84 – Cerro Tololo-DECam MPS 1445626
2016 09 30.12434 23 20 41.81 +00 07 09.2 22.2 z W84 – Cerro Tololo-DECam MPS 1123985
2016 09 30.12434 23 20 41.812 +00 07 09.23 22.45 z W84 – Cerro Tololo-DECam MPS 1445626
2017 09 27.27630 23 25 57.45 +00 30 38.5 22.3 z T09 – Subaru Telescope, Maunakea MPS 2071650
2017 09 27.30436 23 25 57.33 +00 30 37.7 22.6 z T09 – Subaru Telescope, Maunakea MPS 2071650
2017 09 27.31840 23 25 57.27 +00 30 37.3 22.6 z T09 – Subaru Telescope, Maunakea MPS 2071650
2017 09 27.33246 23 25 57.21 +00 30 36.9 22.6 z T09 – Subaru Telescope, Maunakea MPS 2071650
2017 09 27.34659 23 25 57.15 +00 30 36.5 22.2 z T09 – Subaru Telescope, Maunakea MPS 2071650
2017 10 11.187257 23 25 01.92 +00 23 48.6 22.9 i W84 – Cerro Tololo-DECam MPS 994340
2017 10 11.18778 23 25 01.935 +00 23 48.61 22.28 i W84 – Cerro Tololo-DECam MPS 1445626
2017 11 08.06827 23 23 38.812 +00 12 16.96 24.34 g W84 – Cerro Tololo-DECam MPS 1445626
2017 11 08.069120 23 23 38.82 +00 12 16.8 23.7 r W84 – Cerro Tololo-DECam MPS 994340
2017 11 08.06964 23 23 38.818 +00 12 16.71 23.63 r W84 – Cerro Tololo-DECam MPS 1445626
2017 11 09.03923 23 23 36.852 +00 11 57.43 24.69 g W84 – Cerro Tololo-DECam MPS 1445626
2017 11 09.04060 23 23 36.861 +00 11 57.68 23.78 r W84 – Cerro Tololo-DECam MPS 1445626
2017 11 15.052847 23 23 26.31 +00 10 08.5 22.9 i W84 – Cerro Tololo-DECam MPS 994340
2017 11 15.05337 23 23 26.309 +00 10 08.50 22.82 i W84 – Cerro Tololo-DECam MPS 1445626
2018 09 17.27443 23 31 44.684 +00 57 45.28 23.03 r W84 – Cerro Tololo-DECam MPS 1445626
2018 09 17.27580 23 31 44.673 +00 57 45.34 23.52 g W84 – Cerro Tololo-DECam MPS 1445626
2018 09 19.19888 23 31 36.344 +00 56 47.67 22.66 z W84 – Cerro Tololo-DECam MPS 1445626
2022 08 27.385970 23 53 30.158 +02 35 19.85 23.4 G G37 – Lowell Discovery Telescope MPS 1641088
2022 08 27.419490 23 53 30.029 +02 35 18.96   G37 – Lowell Discovery Telescope MPS 1641088
2022 08 27.454860 23 53 29.885 +02 35 18.11   G37 – Lowell Discovery Telescope MPS 1641088